Home > Weather > Burnaby > Past weeks

Flag for Canada Weather for the Past 2 Weeks in Burnaby, British Columbia, Canada

Now
45 °F

Passing clouds.


Feels Like: 43 °F
Forecast: 45 / 51 °F
Wind: 3 mph from Southeast

Location: Vancouver International Airport

Current Time: Feb 10, 2016 at 5:32:20 AM

Latest Report: Feb 10, 2016 at 5:00 AM


Visibility: 20 mi

Pressure: 30.06 "Hg

Humidity: 87%

Dew point: 41 °F

Location of BurnabyLocation

Historic Weather in Burnaby — Graph

°F

Burnaby Temperature Yesterday

Maximum temperature yesterday: 55 °F (at 1:00 PM)
Minimum temperature yesterday: 36 °F (at 5:00 AM)
Average temperature yesterday: 43 °F

High & Low Weather Summary for the Past Weeks

 TemperatureHumidityPressure
High55 °F (Feb 9, 1:00 PM)100% (Jan 26, 9:00 AM)30.61 "Hg (Jan 26, 9:00 AM)
Low36 °F (Feb 1, 3:45 AM)62% (Jan 28, 1:00 PM)29.59 "Hg (Jan 29, 10:00 AM)
Average44 °F87%30.13 "Hg
* Reported Jan 26 4:00 AM — Feb 10 4:00 AM, Burnaby, Weather by CustomWeather, © 2016

Note: Actual official high and low records may vary slightly from our data, if they occured in-between our weather recording intervals... More about our weather records

Advertising

Burnaby Weather History for the Previous 24 Hours

 ConditionsComfort  
Time TempWeatherWind HumidityBarometerVisibility
4:00 AM
Wed, Feb 10
43 °FPassing clouds.No wind93%30.07 "Hg20 mi
3:00 AM45 °FPartly cloudy.8 mph87%30.08 "Hg20 mi
2:00 AM45 °FPassing clouds.6 mph87%30.10 "Hg20 mi
1:00 AM43 °FPartly cloudy.3 mph93%30.09 "Hg20 mi
12:00 AM41 °FPartly cloudy.2 mph93%30.11 "Hg20 mi
11:00 PM
Tue, Feb 9
46 °FPassing clouds.No wind87%30.10 "Hg20 mi
10:00 PM41 °FPassing clouds.2 mph87%30.11 "Hg20 mi
9:00 PM41 °FPassing clouds.7 mph93%30.09 "Hg20 mi
8:00 PM41 °FPassing clouds.2 mph93%30.11 "Hg20 mi
7:00 PM43 °FPassing clouds.2 mph87%30.10 "Hg20 mi
6:00 PM45 °FPassing clouds.3 mph87%30.11 "Hg30 mi
5:00 PM45 °FPartly sunny.3 mph93%30.11 "Hg30 mi
4:00 PM48 °FPartly sunny.3 mph87%30.12 "Hg30 mi
3:00 PM50 °FScattered clouds.5 mph82%30.12 "Hg30 mi
2:00 PM50 °FPartly sunny.7 mph82%30.13 "Hg30 mi
1:00 PM55 °FPartly sunny.6 mph72%30.15 "Hg30 mi
12:00 PM50 °FPartly sunny.No wind88%30.18 "Hg30 mi
11:00 AM46 °FPartly sunny.6 mph100%30.20 "Hg30 mi
10:04 AM43 °FQuite cool.8 mph93%30.21 "Hg1 mi
9:00 AM39 °FFog.5 mph100%30.21 "Hg0 mi
8:03 AM36 °FChilly.No wind100%30.20 "Hg1 mi
7:00 AM36 °FFog.2 mph93%30.19 "Hg1 mi
6:00 AM36 °FFog.2 mph93%30.21 "Hg1 mi
5:00 AM36 °FFog.3 mph100%30.22 "Hg2 mi
Weather by CustomWeather, © 2016

See weather overviewHow to use our weather pages